Preview of NWS' New Version of Forecast
This preview is not operational and should not be used for support decisions.

Regional Weather Roundup (RWR)

Issued by Gray - Portland, ME (GYX)

                            
046 
ASUS41 KGYX 262305
RWRGYX
WEATHER ROUNDUP FOR MAINE AND NEW HAMPSHIRE
NATIONAL WEATHER SERVICE GRAY ME
700 PM EDT TUE MAR 26 2019

MEZ002-005-006-010-012-015-018-020-021-024-026-027-029-270000-
MAINE
  
CITY           SKY/WX    TMP DP  RH WIND       PRES   REMARKS
PORTLAND       FAIR      37   3  24 NW8       30.25R                  
SANFORD        FAIR      35   3  26 W7        30.25R                  
BAR HARBOR     FAIR      32   1  26 VRB5      30.21R                  
WISCASSET      FAIR      35   1  23 CALM      30.25R                  
ROCKLAND       FAIR      34   2  25 W6        30.22R                  
FRYEBURG       FAIR      34   0  23 W8        30.24R                  
LEWISTONAUBURN FAIR      34   1  24 NW9G17    30.24R                  
AUGUSTA        FAIR      32   2  27 NW8G17    30.23R                  
WATERVILLE     FAIR      32   5  32 W8        30.20R                  
BANGOR         FAIR      32   2  27 NW10      30.21R                  
GREENVILLE       N/A     22  -1  36 NW13G28   30.15R WCI  10          
MILLINOCKET    FAIR      27   2  34 NW17G28   30.21R WCI  14          
HOULTON        FAIR      27  -1  30 NW13G23   30.16R WCI  16          
PRESQUE ISLE   FAIR      26   3  37 W12       30.17R WCI  16          
FRENCHVILLE    FAIR      24   2  38 NW14G23   30.11R WCI  12          
CARIBOU        FAIR      25   1  35 NW7       30.14R                  
$$

NHZ002-005-008-009-011-012-014-270000-
NEW HAMPSHIRE
  
CITY           SKY/WX    TMP DP  RH WIND       PRES   REMARKS
PORTSMOUTH     CLEAR     36   2  24 NW10      30.25R                  
ROCHESTER      FAIR      35   3  26 NW9       30.25R                  
NASHUA         FAIR      39   2  21 NW14      30.28R                  
MANCHESTER     FAIR      39   0  19 NW12      30.27R                  
CONCORD        FAIR      35   3  26 NW12      30.27R                  
LACONIA        FAIR      34   4  28 NW9G17    30.26R                  
PLYMOUTH       FAIR      33   2  26 W8        30.27S                  
BERLIN         FAIR      28   4  35 VRB3      30.23R                  
WHITEFIELD     FAIR      30   0  27 NW13G18   30.25R WCI  20          
JAFFREY        FAIR      34   0  23 VRB7      30.25R                  
KEENE          FAIR      36   2  23 N12       30.28R                  
LEBANON        CLEAR     34   5  29 N8        30.27R                  
MT WASHINGTON  CLEAR      1  -6  71 NW53G64     N/A  WCI -30          
$$

VTZ005-007-008-270000-
VERMONT
  
CITY           SKY/WX    TMP DP  RH WIND       PRES   REMARKS
ST JOHNSBURY     N/A     30   2  30 MISG      30.28R                  
MONTPELIER     FAIR      27   5  39 NW9       30.30S                  
BURLINGTON     FAIR      32   6  33 N7        30.34R                  
$$

MAZ007-012-024-CTZ003-RIZ002-NYZ038-NYZ072-270000-
SOUTHERN NEW ENGLAND AND NY
  
CITY           SKY/WX    TMP DP  RH WIND       PRES   REMARKS
BOSTON         FAIR      38  15  39 CALM      30.27R                  
WORCESTER      FAIR      35   0  22 N9        30.24R                  
NANTUCKET      FAIR      32  13  45 NE10      30.25R                  
PROVIDENCE     FAIR      42   3  19 N8        30.25R                  
HARTFORD       FAIR      41   1  18 N12       30.27R                  
ALBANY         FAIR      39   4  23 W15G24    30.31R                  
NEW YORK CITY  FAIR      46   1  15 N16       30.26R                  
$$

ANZ081-ANZ082-ANZ150-NHZ014-MEZ023>029-270000-
COASTAL MARINE OBSERVATIONS
  
STATION/POSITION TIME  TEMP    WIND        PRES    WAVE
                       AIR SEA DIR/SP/G            HT/PER
                 (UTC) (F)     (DEG/KT/KT) (MB)    (FT/S)
MOUNT DESERT ROC 2200   34     280/ 14/ 16 1022.7R
MATINICUS ROCK   2200   35     290/ 13/ 18 1022.6R
ISLE OF SHOALS   2200   35     200/  6/  7 1024.0R
CASHES LEDGE BUO 2250   35 39              1024.0R   2/ 4
$$

.............KEY..............
   WCI - WIND CHILL
   TC  - TEMPERATURE IN CELSIUS
   VSB - VISIBILITY IN MILES
   HX  - HEAT INDEX
   FAIR- INDICATES FEW OR NO CLOUDS BELOW 12,000 FT, WITH NO 
         SIGNIFICANT WEATHER AND/OR OBSTRUCTIONS TO VISIBILITY.